Location: Baggett Branch
(32.6074°N, 97.0167°W)
Time: 04:04:17
(UTC+00:00)

Envisat - Visible Passes

Search period start: 15 April 2026 00:00
Search period end: 25 April 2026 00:00
Orbit: 761 x 762 km, 98.4° (Epoch: 14 April)

Date Brightness Start Highest point End Pass type
(mag) Time Alt. Az. Time Alt. Az. Time Alt. Az.
15 Apr 5.6 08:07:29 10° NE 08:08:38 15° NE 08:08:38 15° NE visible
15 Apr 4.3 09:45:52 10° N 09:48:47 27° NW 09:48:47 27° NW visible
16 Apr 4.2 09:07:37 10° N 09:10:37 37° N 09:10:37 37° N visible
17 Apr 5.0 08:30:07 10° NNE 08:32:28 25° NE 08:32:28 25° NE visible
17 Apr 4.7 10:09:57 10° NNW 10:12:35 18° NW 10:12:35 18° NW visible
18 Apr 5.8 07:53:47 10° NE 07:54:18 12° ENE 07:54:18 12° ENE visible
18 Apr 4.0 09:31:07 10° N 09:34:26 35° NNW 09:34:26 35° NNW visible
19 Apr 4.2 08:53:09 10° NNE 08:56:16 38° NNE 08:56:16 38° NNE visible
19 Apr 5.1 10:35:16 10° NW 10:36:24 11° WNW 10:36:24 11° WNW visible
20 Apr 5.2 08:15:59 10° NE 08:18:07 21° ENE 08:18:07 21° ENE visible
20 Apr 4.3 09:54:55 10° NNW 09:58:14 25° NW 09:58:14 25° NW visible
21 Apr 3.7 09:16:28 10° N 09:20:05 45° NNW 09:20:05 45° NNW visible
22 Apr 4.4 08:38:47 10° NNE 08:41:55 34° NE 08:41:55 34° NE visible
22 Apr 4.8 10:19:15 10° NNW 10:22:03 15° WNW 10:22:03 15° WNW visible
23 Apr 5.5 08:02:03 10° NE 08:03:44 16° ENE 08:03:44 16° ENE visible
23 Apr 3.9 09:40:05 10° N 09:43:53 34° NW 09:43:53 34° NW visible
24 Apr 3.6 09:01:56 10° NNE 09:05:42 51° NNE 09:05:42 51° NNE visible
